Weather History for Newcastle Airport, United Kingdom

Change the Weather History Date:

Saturday, May 25, 2013

  Actual Average Record
Temperature  
Mean Temperature 50 °F -  
Max Temperature 64 °F 60 °F 69 °F (2012)
Min Temperature 35 °F 46 °F 35 °F (2013)
Degree Days  
Heating Degree Days 16    
Moisture  
Dew Point 38 °F    
Average Humidity 66    
Maximum Humidity 100    
Minimum Humidity 41    
Precipitation  
Precipitation 0.00 in - - ()
Sea Level Pressure  
Sea Level Pressure 30.15 in    
Wind  
Wind Speed 5 mph ()    
Max Wind Speed 14 mph    
Max Gust Speed -    
Visibility 6.2 miles    
Events      
Averages and records for this station are not official NWS values.
T = Trace of Precipitation, MM = Missing Value Source: Averaged Metar Reports

Daily Weather History Graph

Daily Weather History Graph

Search for Another Location

Airport:

Trip Planner

Search our weather history database for the weather conditions in past years. The results will help you decide how hot, cold, wet, or windy it might be!

Date:

Astronomy

May. 25, 2013 Rise Set
Actual Time 4:43 AM BST 9:25 PM BST
Civil Twilight 3:51 AM BST 10:17 PM BST
Nautical Twilight 2:26 AM BST 11:44 PM BST
Astronomical Twilight Sun does not rise Sun does not rise
Moon 9:54 PM BST (5/25) 5:01 AM BST (5/25)
Length of Visible Light 18h 25m
Length of Day
16h 41m
Full, 100% of the Moon is Illuminated
May 25
Full
May 31
Last Quarter
Jun 8
New
Jun 16
First Quarter
Jun 23
Full

Hourly Weather History & Observations

Time (BST) Temp. Windchill Dew Point Humidity Pressure Visibility Wind Dir Wind Speed Gust Speed Precip Events Conditions
12:20 AM 41.0 °F 37.1 °F 39.2 °F 93% 30.18 in 6.2 mi NW 5.8 mph - N/A   Partly Cloudy
12:50 AM 39.2 °F 35.0 °F 37.4 °F 93% 30.18 in 6.2 mi WNW 5.8 mph - N/A   Partly Cloudy
1:20 AM 39.2 °F 35.9 °F 37.4 °F 93% 30.18 in 6.2 mi NW 4.6 mph - N/A   Partly Cloudy
1:50 AM 37.4 °F 33.8 °F 35.6 °F 93% 30.18 in 6.2 mi WNW 4.6 mph - N/A   Partly Cloudy
2:20 AM 37.4 °F 34.9 °F 35.6 °F 93% 30.18 in - West 3.5 mph - N/A   Clear
2:50 AM 37.4 °F - 35.6 °F 93% 30.18 in - WSW 2.3 mph - N/A   Clear
3:20 AM 35.6 °F - 35.6 °F 100% 30.18 in - Variable 2.3 mph - N/A   Clear
3:50 AM 35.6 °F 31.7 °F 33.8 °F 93% 30.18 in - WSW 4.6 mph - N/A   Clear
4:20 AM 35.6 °F 31.7 °F 33.8 °F 93% 30.18 in - WSW 4.6 mph - N/A   Clear
4:50 AM 35.6 °F 31.7 °F 33.8 °F 93% 30.18 in - WSW 4.6 mph - N/A   Clear
5:20 AM 35.6 °F - 35.6 °F 100% 30.18 in - West 2.3 mph - N/A   Clear
5:50 AM 39.2 °F - 37.4 °F 93% 30.18 in - SW 2.3 mph - N/A   Clear
6:20 AM 39.2 °F - 37.4 °F 93% 30.18 in - Variable 2.3 mph - N/A   Clear
6:50 AM 42.8 °F 41.1 °F 39.2 °F 87% 30.18 in - Variable 3.5 mph - N/A   Clear
7:20 AM 44.6 °F 43.1 °F 42.8 °F 93% 30.18 in - WSW 3.5 mph - N/A   Clear
7:50 AM 46.4 °F 44.3 °F 44.6 °F 93% 30.18 in - West 4.6 mph - N/A   Clear
8:20 AM 48.2 °F - 44.6 °F 87% 30.18 in - West 5.8 mph - N/A   Clear
8:50 AM 50.0 °F - 42.8 °F 76% 30.18 in - West 6.9 mph - N/A   Clear
9:20 AM 51.8 °F - 41.0 °F 67% 30.18 in - WNW 8.1 mph - N/A   Clear
9:50 AM 55.4 °F - 41.0 °F 58% 30.18 in - Variable 4.6 mph - N/A   Clear
10:20 AM 57.2 °F - 41.0 °F 55% 30.18 in - WNW 5.8 mph - N/A   Clear
10:50 AM 57.2 °F - 39.2 °F 51% 30.18 in - NW 5.8 mph - N/A   Clear
11:20 AM 57.2 °F - 33.8 °F 41% 30.18 in - West 5.8 mph - N/A   Clear
11:50 AM 59.0 °F - 39.2 °F 48% 30.15 in - Variable 3.5 mph - N/A   Clear
12:20 PM 59.0 °F - 41.0 °F 51% 30.15 in - NNW 5.8 mph - N/A   Clear
12:50 PM 59.0 °F - 39.2 °F 48% 30.15 in - NNW 5.8 mph - N/A   Clear
1:20 PM 60.8 °F - 37.4 °F 42% 30.15 in - NW 5.8 mph - N/A   Clear
1:50 PM 60.8 °F - 39.2 °F 45% 30.15 in - NNW 4.6 mph - N/A   Clear
2:20 PM 62.6 °F - 39.2 °F 42% 30.15 in - Variable 3.5 mph - N/A   Clear
2:50 PM 60.8 °F - 37.4 °F 42% 30.12 in - Variable 3.5 mph - N/A   Clear
3:20 PM 62.6 °F - 39.2 °F 42% 30.12 in - Variable 3.5 mph - N/A   Clear
3:50 PM 64.4 °F - 41.0 °F 42% 30.12 in - ESE 4.6 mph - N/A   Clear
4:20 PM 62.6 °F - 39.2 °F 42% 30.12 in - East 6.9 mph - N/A   Clear
4:50 PM 60.8 °F - 42.8 °F 52% 30.12 in - ENE 9.2 mph - N/A   Clear
5:20 PM 60.8 °F - 41.0 °F 48% 30.12 in - East 5.8 mph - N/A   Clear
5:50 PM 62.6 °F - 41.0 °F 45% 30.12 in - Variable 4.6 mph - N/A   Clear
6:20 PM 62.6 °F - 41.0 °F 45% 30.12 in - East 5.8 mph - N/A   Clear
6:50 PM 60.8 °F - 41.0 °F 48% 30.12 in - Variable 6.9 mph - N/A   Clear
7:20 PM 59.0 °F - 41.0 °F 51% 30.12 in - West 10.4 mph - N/A   Clear
7:50 PM 55.4 °F - 39.2 °F 54% 30.12 in - West 12.7 mph - N/A   Clear
8:20 PM 55.4 °F - 39.2 °F 54% 30.12 in - West 13.8 mph - N/A   Clear
8:50 PM 53.6 °F - 37.4 °F 54% 30.12 in - West 11.5 mph - N/A   Clear
9:20 PM 51.8 °F - 37.4 °F 58% 30.12 in - West 11.5 mph - N/A   Clear
9:50 PM 50.0 °F - 35.6 °F 58% 30.12 in - West 12.7 mph - N/A   Clear
10:20 PM 50.0 °F - 35.6 °F 58% 30.12 in - West 13.8 mph - N/A   Clear
10:50 PM 48.2 °F - 33.8 °F 58% 30.12 in - West 12.7 mph - N/A   Clear
11:20 PM 48.2 °F - 35.6 °F 62% 30.12 in - West 11.5 mph - N/A   Clear
11:50 PM 46.4 °F 41.9 °F 35.6 °F 66% 30.12 in - West 9.2 mph - N/A   Clear